Content
SEND FEEDBACK

Daily
Averages
Monthly
Summary
United States of America

WILMINGTON, NORTH CAROLINA


Home > North America > United States > North Carolina
Elevation: 72 feet     Latitude: 34 16N     Longitude: 077 54W

WEATHER
 
SELECT A DAY
Number of Records: 214,150;   Date Range: 1/1/95 - 12/20/14
 
SHARE

PRINT THIS DATA

[ ← Previous Day ]
WEATHER ALMANAC - NOVEMBER 1, 2013
[ Next Day → ]
[ °C ]   °F
Weather ElementAverageHighLow
Temperature74.4 °F80.1 °F (2:53 pm)69.1 °F (2:53 am)
Dewpoint67.4 °F69.8 °F (11:49 am)64 °F (1:53 am)
Humidity79.1 %90 % (3:53 am)67 % (2:53 pm)
Barometer29.86 in29.99 in (1:53 am)29.76 in (5:53 pm)
Wind Speed13.4 mph18.4 mph (10:53 am)
Wind Gust25.3 mph (7:53 pm)
Weather ElementAverage
Visibility9.4 mi
Wind DirectionSSW (204.3 °)

Weather ElementTotal
Precipitation0.29 in
Cooling Degree Days9.6 (Base 65)
Growing Degree Days24.6 (Base 50)
Averaged from 28 records on November 1, 2013
WEATHER CONDITIONS BREAKOUT
WIND DIRECTION BREAKOUT
WEATHER BY HOUR - NOVEMBER 1, 2013
[ °C ]   °F
Local TimeTemperatureDewpointHumidityBarometerVisibilityWind DirectionWind SpeedGust SpeedPrecipitationEventsConditions
1:53 AM73.9 °F64.0 °F71 %29.99 in10.0 miWSW (240°)11.5 mph0.00 inRainLight Rain
2:17 AM69.8 °F66.2 °F88 %29.98 in2.5 miSW (230°)16.1 mph0.03 inRainRain
2:41 AM69.8 °F66.2 °F88 %29.94 in4.0 miSSE (160°)10.4 mph20.7 mph0.08 inRainLight Rain
2:48 AM69.8 °F64.4 °F83 %29.94 in8.0 miSE (140°)11.5 mph18.4 mph0.09 inRainLight Rain
2:53 AM69.1 °F64.9 °F87 %29.93 in10.0 miSE (140°)8.1 mph18.4 mph0.09 inOvercast
3:53 AM70.0 °F66.9 °F90 %29.91 in10.0 miSouth (170°)8.1 mphOvercast
4:53 AM70.0 °F66.9 °F90 %29.89 in10.0 miSouth (190°)8.1 mphScattered Clouds
5:53 AM70.0 °F66.9 °F90 %29.88 in10.0 miSouth (180°)6.9 mphOvercast
6:53 AM73.0 °F69.1 °F87 %29.88 in10.0 miSSW (200°)12.7 mphMostly Cloudy
7:53 AM73.0 °F69.1 °F87 %29.88 in10.0 miSSW (210°)13.8 mph19.6 mphClear
8:53 AM73.9 °F69.1 °F85 %29.90 in10.0 miSW (220°)11.5 mphClear
9:53 AM75.9 °F69.1 °F79 %29.90 in10.0 miSSW (210°)15.0 mph21.9 mphMostly Cloudy
10:53 AM75.9 °F68.0 °F76 %29.89 in10.0 miSSW (210°)18.4 mph24.2 mphClear
11:49 AM75.2 °F69.8 °F83 %29.88 in10.0 miSW (230°)16.1 mph24.2 mphMostly Cloudy
11:53 AM75.9 °F69.1 °F79 %29.88 in10.0 miSW (220°)18.4 mph24.2 mphMostly Cloudy
12:02 PM75.2 °F69.8 °F83 %29.88 in10.0 miSW (220°)16.1 mph24.2 mphScattered Clouds
12:53 PM78.1 °F69.1 °F74 %29.85 in10.0 miSSW (200°)13.8 mph19.6 mphClear
1:53 PM79.0 °F68.0 °F69 %29.81 in10.0 miSW (220°)17.3 mphClear
2:53 PM80.1 °F68.0 °F67 %29.80 in10.0 miSW (220°)16.1 mph24.2 mphMostly Cloudy
3:53 PM78.1 °F66.9 °F68 %29.78 in10.0 miSSW (210°)11.5 mph18.4 mphMostly Cloudy
4:53 PM77.0 °F66.9 °F71 %29.77 in10.0 miSSW (210°)9.2 mph23.0 mphClear
5:53 PM75.0 °F66.0 °F73 %29.76 in10.0 miSSW (200°)13.8 mph21.9 mphClear
6:53 PM75.0 °F66.0 °F73 %29.77 in10.0 miSW (220°)13.8 mph18.4 mphScattered Clouds
7:53 PM75.9 °F66.0 °F71 %29.78 in10.0 miSSW (210°)16.1 mph25.3 mph0.00 inRainLight Rain
8:53 PM75.9 °F68.0 °F76 %29.77 in10.0 miSSW (210°)16.1 mph24.2 mphMostly Cloudy
9:53 PM77.0 °F66.9 °F71 %29.77 in10.0 miSSW (210°)12.7 mph20.7 mphOvercast
10:53 PM75.9 °F68.0 °F76 %29.77 in10.0 miSSW (210°)13.8 mph20.7 mph0.00 inOvercast
11:53 PM75.0 °F68.0 °F79 %29.77 in10.0 miSW (230°)17.3 mph21.9 mph0.00 inRainLight Rain
Hourly data recorded from KILM, located miles away from Wilmington, North Carolina







STORIES FROM OUR PARTNERS